RPC1404 RPLL-RPLL

Flight info

Callsign RPC1404
Flight time N/A
Altitude 1500
Route RPLL RPLL
Aircraft C172/L-SADE1E2E3GHIJ3J5M1P2RWXY/LB2D1

Departure

Time 2026-05-06 15:33
Airport Ninoy Aquino International Airport (RPLL)

Arrival

Time N/A
Airport Ninoy Aquino International Airport (RPLL)
Time Latitude Longitude Altitude Speed Heading
2026-05-06 15:17 14.51802 121.00603 77 ft 0 kts 334°
2026-05-06 15:26 14.51806 121.00600 77 ft 2 kts 333°
2026-05-06 15:26 14.51843 121.00595 77 ft 7 kts 45°
2026-05-06 15:26 14.51890 121.00596 77 ft 6 kts
2026-05-06 15:26 14.51956 121.00608 77 ft 13 kts 10°
2026-05-06 15:27 14.52032 121.00623 77 ft 8 kts 10°
2026-05-06 15:27 14.52052 121.00626 77 ft 0 kts 10°
2026-05-06 15:31 14.52064 121.00628 77 ft 4 kts
2026-05-06 15:31 14.52111 121.00653 77 ft 5 kts 46°
2026-05-06 15:31 14.52100 121.00679 77 ft 8 kts 140°
2026-05-06 15:32 14.52089 121.00690 77 ft 0 kts 133°
2026-05-06 15:32 14.51988 121.00800 77 ft 46 kts 136°
2026-05-06 15:32 14.51671 121.01099 147 ft 69 kts 132°
2026-05-06 15:32 14.51316 121.01457 281 ft 74 kts 131°
2026-05-06 15:33 14.50954 121.01836 438 ft 75 kts 130°
2026-05-06 15:33 14.50582 121.02196 484 ft 75 kts 132°
2026-05-06 15:33 14.50141 121.02497 658 ft 75 kts 159°
2026-05-06 15:33 14.49617 121.02409 786 ft 86 kts 215°
2026-05-06 15:34 14.49286 121.01885 987 ft 80 kts 239°
2026-05-06 15:34 14.49007 121.01360 1049 ft 88 kts 240°
2026-05-06 15:34 14.48706 121.00809 1111 ft 87 kts 239°
2026-05-06 15:35 14.47318 120.98493 1252 ft 88 kts 238°
2026-05-06 15:35 14.47306 120.97902 1224 ft 82 kts 310°
2026-05-06 15:36 14.47745 120.97560 1186 ft 78 kts 330°
2026-05-06 15:36 14.48269 120.97504 1073 ft 79 kts 32°
2026-05-06 15:36 14.48612 120.97963 902 ft 82 kts 60°
2026-05-06 15:36 14.48920 120.98485 730 ft 88 kts 60°